Change the Weather History Date:

Thursday, May 14, 2009

  Actual Average Record
Temperature  
Mean Temperature 60 °F -  
Max Temperature 82 °F 76 °F 85 °F (1992)
Min Temperature 39 °F 38 °F 22 °F (2014)
Degree Days  
Heating Degree Days 4    
Growing Degree Days 10 (Base 50)    
Moisture  
Dew Point 17 °F    
Average Humidity 18    
Maximum Humidity 41    
Minimum Humidity 6    
Precipitation  
Precipitation 0.00 in - - ()
Sea Level Pressure  
Sea Level Pressure 29.86 in    
Wind  
Wind Speed 7 mph (WSW)    
Max Wind Speed 17 mph    
Max Gust Speed 30 mph    
Averages and records for this station are not official NWS values.
T = Trace of Precipitation, MM = Missing Value Source: NWS Daily Summary

Daily Weather History Graph

Daily Weather History Graph

Search for Another Location

Airport or City:

Trip Planner

Search our weather history database for the weather conditions in past years. The results will help you decide how hot, cold, wet, or windy it might be!

Date:

Astronomy

May. 14, 2009 Rise Set
Actual Time 6:08 AM MDT 8:08 PM MDT
Civil Twilight 5:40 AM MDT 8:36 PM MDT
Nautical Twilight 5:06 AM MDT 9:10 PM MDT
Astronomical Twilight 4:29 AM MDT 9:47 PM MDT
Moon 12:21 AM MDT (5/14) 10:25 AM MDT (5/14)
Length of Visible Light 14h 56m
Length of Day
13h 59m
Waning Gibbous, 73% of the Moon is Illuminated
May 14
Waning Gibbous
May 17
Last Quarter
May 24
New
May 30
First Quarter
Jun 7
Full

Hourly Weather History & Observations

Time (MDT) Temp. Windchill Dew Point Humidity Pressure Visibility Wind Dir Wind Speed Gust Speed Precip Events Conditions
12:53 AM 62.1 °F - 19.0 °F 19% 29.84 in - Calm Calm - N/A   Unknown
1:53 AM 60.1 °F - 19.0 °F 20% 29.86 in - North 5.8 mph - N/A   Unknown
2:53 AM 52.0 °F - 18.0 °F 26% 29.88 in - Variable 3.5 mph - N/A   Unknown
3:53 AM 45.0 °F 43.5 °F 18.0 °F 34% 29.89 in - NW 3.5 mph - N/A   Unknown
4:53 AM 48.0 °F - 19.0 °F 32% 29.90 in - Calm Calm - N/A   Unknown
5:53 AM 39.9 °F - 18.0 °F 41% 29.93 in - Calm Calm - N/A   Unknown
6:53 AM 48.0 °F - 19.9 °F 33% 29.94 in - South 4.6 mph - N/A   Unknown
7:53 AM 57.9 °F - 28.0 °F 32% 29.94 in - SSE 12.7 mph - N/A   Unknown
8:53 AM 64.0 °F - 28.9 °F 27% 29.94 in - SE 17.3 mph - N/A   Unknown
9:53 AM 66.0 °F - 27.0 °F 23% 29.96 in - SE 15.0 mph - N/A   Unknown
10:53 AM 68.0 °F - 25.0 °F 20% 29.94 in - SE 17.3 mph - N/A   Unknown
11:53 AM 73.0 °F - 23.0 °F 15% 29.89 in - SSE 13.8 mph 23.0 mph N/A   Unknown
12:53 PM 75.9 °F - 21.0 °F 13% 29.84 in - Variable 5.8 mph 19.6 mph N/A   Unknown
1:53 PM 78.1 °F - 19.9 °F 11% 29.82 in - Variable 4.6 mph 16.1 mph N/A   Unknown
2:53 PM 82.0 °F - 10.0 °F 7% 29.81 in - WNW 16.1 mph 24.2 mph N/A   Unknown
3:53 PM 82.0 °F - 7.0 °F 6% 29.82 in - WSW 13.8 mph 24.2 mph N/A   Unknown
4:53 PM 81.0 °F - 9.0 °F 6% 29.79 in - SW 13.8 mph 29.9 mph N/A   Unknown
5:09 PM 80.6 °F - 8.6 °F 6% 30.05 in - WNW 10.4 mph 24.2 mph N/A   Unknown
5:53 PM 80.1 °F - 10.9 °F 7% 29.82 in - Variable 4.6 mph 21.9 mph N/A   Unknown
6:53 PM 78.1 °F - 9.0 °F 7% 29.79 in - West 11.5 mph - N/A   Unknown
7:53 PM 73.9 °F - 7.0 °F 8% 29.77 in - West 8.1 mph - N/A   Unknown
8:53 PM 64.9 °F - 9.0 °F 11% 29.79 in - West 9.2 mph - N/A   Unknown
9:53 PM 64.9 °F - 12.0 °F 13% 29.80 in - West 10.4 mph - N/A   Unknown
10:53 PM 66.0 °F - 15.1 °F 14% 29.81 in - West 12.7 mph - N/A   Unknown
11:53 PM 68.0 °F - 16.0 °F 14% 29.78 in - West 15.0 mph 25.3 mph N/A   Unknown